Starlink 32495

operational
NORAD ID: 62052 Int'l Des: 2024-216 Owner: SPXS Country: US Constellation: starlink
LEOCIRCULAR

Starlink 32495について

説明を読み込み中...

リアルタイム位置

3D地球を読み込み中...

次回通過

高度履歴

Altitude vs Time

uPlot chart will show altitude changes over time

軌道要素

1 62052U 24216W 25305.17695210 .00040363 00000-0 14668-2 0 9999
2 62052 43.0027 268.8116 0001259 271.2041 88.8666 15.27612450 54148
Epoch: Nov 1, 2025 • Age: 38 hours

現在のステータス

高度 483.8 km
速度 7.63 km/s
衛星直下点 29.45°N, 83.15°E
打ち上げ日 Nov 21, 2024
運用期間 0.9 years
タイプ internet

技術仕様

分類 Payload
質量 730.00 kg
乾燥質量 700.00 kg
総質量 730.00 kg
長さ 0.30 m
直径 4.10 m
スパン 29.00 m
形状 Box + pan
製造者 SPXS
バスタイプ Starlink V2M
フェーズステータス In Orbit
所有者/国 SPXS/US

大規模コンステレーション

Loading constellations...